EZY243A LIMC-LIMF

Flight info

Callsign EZY243A
Flight time 0h 22m
Altitude 16000
Route TOP
Aircraft A321/M-SDE3FGHIRWY/LB1

Departure

Time 2026-05-05 18:16
Airport Milan Malpensa International Airport (LIMC)

Arrival

Time 2026-05-05 18:38
Airport Turin Airport (LIMF)
Time Latitude Longitude Altitude Speed Heading
2026-05-05 17:48 45.62567 8.71949 737 ft 0 kts 80°
2026-05-05 18:03 45.62566 8.71942 737 ft 2 kts 80°
2026-05-05 18:03 45.62564 8.71923 737 ft 2 kts 80°
2026-05-05 18:04 45.62562 8.71905 738 ft 2 kts 81°
2026-05-05 18:04 45.62560 8.71888 738 ft 2 kts 83°
2026-05-05 18:04 45.62559 8.71871 738 ft 2 kts 95°
2026-05-05 18:04 45.62563 8.71857 738 ft 1 kts 158°
2026-05-05 18:05 45.62564 8.71856 738 ft 0 kts 163°
2026-05-05 18:06 45.62563 8.71856 737 ft 2 kts 167°
2026-05-05 18:06 45.62455 8.71886 735 ft 27 kts 169°
2026-05-05 18:07 45.62354 8.71920 733 ft 5 kts 163°
2026-05-05 18:07 45.62326 8.71929 732 ft 13 kts 169°
2026-05-05 18:07 45.62196 8.71976 730 ft 17 kts 138°
2026-05-05 18:07 45.62184 8.72029 730 ft 9 kts 97°
2026-05-05 18:08 45.62183 8.72134 731 ft 10 kts 118°
2026-05-05 18:08 45.62115 8.72184 729 ft 15 kts 170°
2026-05-05 18:08 45.61981 8.72218 728 ft 24 kts 168°
2026-05-05 18:08 45.61861 8.72282 726 ft 8 kts 134°
2026-05-05 18:09 45.61850 8.72336 723 ft 6 kts 109°
2026-05-05 18:09 45.61803 8.72379 722 ft 13 kts 165°
2026-05-05 18:09 45.61676 8.72411 720 ft 24 kts 167°
2026-05-05 18:09 45.61492 8.72462 718 ft 29 kts 169°
2026-05-05 18:10 45.61304 8.72514 716 ft 28 kts 168°
2026-05-05 18:10 45.61143 8.72562 703 ft 22 kts 162°
2026-05-05 18:10 45.61079 8.72612 702 ft 7 kts 110°
2026-05-05 18:10 45.61093 8.72774 703 ft 26 kts 78°
2026-05-05 18:11 45.61131 8.73029 699 ft 20 kts 65°
2026-05-05 18:11 45.61214 8.73129 713 ft 17 kts 34°
2026-05-05 18:11 45.61326 8.73235 713 ft 23 kts 32°
2026-05-05 18:11 45.61471 8.73250 711 ft 19 kts 348°
2026-05-05 18:12 45.61547 8.73228 714 ft 11 kts 349°
2026-05-05 18:12 45.61619 8.73272 716 ft 13 kts 65°
2026-05-05 18:12 45.61632 8.73421 713 ft 15 kts 105°
2026-05-05 18:12 45.61591 8.73556 698 ft 11 kts 104°
2026-05-05 18:13 45.61588 8.73581 702 ft 0 kts 98°
2026-05-05 18:14 45.61591 8.73636 697 ft 11 kts 81°
2026-05-05 18:14 45.61645 8.73722 699 ft 10 kts
2026-05-05 18:14 45.61666 8.73722 704 ft 0 kts 352°
2026-05-05 18:15 45.61699 8.73715 704 ft 31 kts 351°
2026-05-05 18:15 45.62239 8.73564 726 ft 129 kts 349°
2026-05-05 18:15 45.63394 8.73270 872 ft 195 kts 348°
2026-05-05 18:16 45.64795 8.72853 1722 ft 210 kts 347°
2026-05-05 18:16 45.66218 8.72385 3064 ft 210 kts 348°
2026-05-05 18:16 45.67632 8.71967 4338 ft 211 kts 349°
2026-05-05 18:16 45.69077 8.71568 5575 ft 215 kts 342°
2026-05-05 18:17 45.70262 8.70322 6633 ft 219 kts 297°
2026-05-05 18:17 45.70413 8.68211 7651 ft 221 kts 249°
2026-05-05 18:17 45.69397 8.66602 8651 ft 229 kts 204°
2026-05-05 18:17 45.67804 8.66108 9706 ft 240 kts 199°
2026-05-05 18:18 45.66320 8.64942 10670 ft 249 kts 211°
2026-05-05 18:18 45.64828 8.63597 11671 ft 259 kts 218°
2026-05-05 18:18 45.63501 8.61776 12588 ft 271 kts 229°
2026-05-05 18:18 45.62342 8.59584 13561 ft 281 kts 235°
2026-05-05 18:19 45.61287 8.57234 14474 ft 289 kts 239°
2026-05-05 18:19 45.60323 8.54690 15401 ft 294 kts 242°
2026-05-05 18:19 45.59371 8.52078 16321 ft 299 kts 240°
2026-05-05 18:19 45.58291 8.49489 17013 ft 308 kts 236°
2026-05-05 18:20 45.57048 8.46938 17374 ft 313 kts 233°
2026-05-05 18:20 45.55841 8.44564 17632 ft 281 kts 233°
2026-05-05 18:20 45.54723 8.42368 17307 ft 268 kts 233°
2026-05-05 18:20 45.53634 8.40232 16732 ft 264 kts 233°
2026-05-05 18:21 45.52546 8.38108 16217 ft 269 kts 233°
2026-05-05 18:21 45.51425 8.35930 16033 ft 275 kts 233°
2026-05-05 18:21 45.50307 8.33758 16017 ft 275 kts 233°
2026-05-05 18:21 45.49176 8.31563 16014 ft 275 kts 233°
2026-05-05 18:22 45.48043 8.29367 16015 ft 275 kts 233°
2026-05-05 18:22 45.46913 8.27176 16012 ft 274 kts 233°
2026-05-05 18:22 45.45786 8.24982 16013 ft 274 kts 233°
2026-05-05 18:22 45.44662 8.22794 16012 ft 274 kts 233°
2026-05-05 18:23 45.43537 8.20608 16012 ft 274 kts 233°
2026-05-05 18:23 45.42413 8.18422 16013 ft 274 kts 233°
2026-05-05 18:23 45.41289 8.16236 16030 ft 274 kts 233°
2026-05-05 18:23 45.40177 8.14067 16004 ft 265 kts 233°
2026-05-05 18:24 45.39046 8.12024 15996 ft 261 kts 226°
2026-05-05 18:24 45.37626 8.10382 14927 ft 273 kts 213°
2026-05-05 18:24 45.35883 8.09102 13456 ft 297 kts 210°
2026-05-05 18:24 45.34035 8.07568 11756 ft 318 kts 212°
2026-05-05 18:25 45.32130 8.05817 10156 ft 331 kts 214°
2026-05-05 18:25 45.31491 8.05196 9610 ft 327 kts 214°
2026-05-05 18:25 45.28633 8.02319 7107 ft 284 kts 215°
2026-05-05 18:25 45.27069 8.00733 6118 ft 262 kts 215°
2026-05-05 18:26 45.25696 7.99330 5874 ft 222 kts 215°
2026-05-05 18:26 45.24508 7.98123 5974 ft 203 kts 212°
2026-05-05 18:26 45.23273 7.97250 5988 ft 201 kts 201°
2026-05-05 18:26 45.21966 7.96636 5765 ft 194 kts 195°
2026-05-05 18:27 45.20709 7.95979 5564 ft 193 kts 205°
2026-05-05 18:27 45.19496 7.95183 5348 ft 191 kts 203°
2026-05-05 18:27 45.18269 7.94466 5128 ft 191 kts 201°
2026-05-05 18:27 45.17060 7.93819 5484 ft 179 kts 200°
2026-05-05 18:28 45.14597 7.92514 6425 ft 195 kts 200°
2026-05-05 18:28 45.13336 7.91822 6437 ft 194 kts 201°
2026-05-05 18:28 45.12078 7.91107 6116 ft 199 kts 201°
2026-05-05 18:29 45.10826 7.90374 5732 ft 193 kts 202°
2026-05-05 18:29 45.09608 7.89634 5656 ft 192 kts 203°
2026-05-05 18:29 45.08310 7.88827 5968 ft 215 kts 203°
2026-05-05 18:29 45.06893 7.87946 6144 ft 227 kts 203°
2026-05-05 18:30 45.05444 7.87047 6033 ft 227 kts 203°
2026-05-05 18:30 45.03988 7.86146 6002 ft 229 kts 203°
2026-05-05 18:30 45.02529 7.85244 5993 ft 229 kts 203°
2026-05-05 18:30 45.01070 7.84339 5992 ft 229 kts 203°
2026-05-05 18:31 44.99615 7.83437 5994 ft 229 kts 203°
2026-05-05 18:31 44.98158 7.82534 5994 ft 229 kts 203°
2026-05-05 18:31 44.96720 7.81642 5996 ft 229 kts 203°
2026-05-05 18:31 44.95272 7.80707 5990 ft 229 kts 208°
2026-05-05 18:32 44.94154 7.79125 6002 ft 231 kts 239°
2026-05-05 18:32 44.93766 7.76947 5962 ft 228 kts 266°
2026-05-05 18:32 44.93812 7.74745 5500 ft 223 kts 272°
2026-05-05 18:32 44.93926 7.72577 5002 ft 221 kts 273°
2026-05-05 18:33 44.94048 7.70422 4480 ft 220 kts 273°
2026-05-05 18:33 44.94176 7.68251 4091 ft 226 kts 276°
2026-05-05 18:33 44.94788 7.66206 3998 ft 231 kts 308°
2026-05-05 18:33 44.96046 7.64810 3999 ft 231 kts 329°
2026-05-05 18:34 44.97438 7.63757 3975 ft 230 kts 333°
2026-05-05 18:34 44.98861 7.62737 3974 ft 229 kts 338°
2026-05-05 18:34 45.00416 7.62589 3910 ft 226 kts 10°
2026-05-05 18:34 45.01909 7.63067 3896 ft 217 kts 14°
2026-05-05 18:35 45.03373 7.63557 3758 ft 214 kts 12°
2026-05-05 18:35 45.04824 7.63860 3484 ft 207 kts
2026-05-05 18:35 45.06192 7.64041 3213 ft 190 kts
2026-05-05 18:35 45.07471 7.64190 2909 ft 180 kts
2026-05-05 18:36 45.08713 7.64292 2544 ft 177 kts
2026-05-05 18:36 45.09896 7.64332 2366 ft 167 kts
2026-05-05 18:36 45.11036 7.64377 2256 ft 161 kts
2026-05-05 18:36 45.12149 7.64435 2095 ft 159 kts
2026-05-05 18:37 45.13209 7.64519 2060 ft 150 kts
2026-05-05 18:37 45.14256 7.64619 1886 ft 152 kts
2026-05-05 18:37 45.15324 7.64687 1656 ft 155 kts
2026-05-05 18:37 45.16373 7.64737 1398 ft 147 kts
2026-05-05 18:38 45.17409 7.64803 1222 ft 152 kts
2026-05-05 18:38 45.18429 7.64863 1029 ft 142 kts
2026-05-05 18:38 45.19356 7.64926 967 ft 124 kts
2026-05-05 18:38 45.20033 7.64964 978 ft 47 kts
2026-05-05 18:39 45.20112 7.64962 984 ft 9 kts 354°
2026-05-05 18:39 45.20166 7.64923 989 ft 9 kts 319°
2026-05-05 18:39 45.20186 7.64886 983 ft 0 kts 299°
2026-05-05 18:39 45.20193 7.64871 992 ft 0 kts 296°
2026-05-05 18:40 45.20196 7.64855 985 ft 8 kts 282°
2026-05-05 18:41 45.20138 7.64706 981 ft 19 kts 199°
2026-05-05 18:41 45.19997 7.64690 983 ft 21 kts 181°
2026-05-05 18:41 45.19889 7.64685 968 ft 24 kts 182°
2026-05-05 18:41 45.19758 7.64695 967 ft 4 kts 171°
2026-05-05 18:42 45.19737 7.64698 968 ft 7 kts 179°
2026-05-05 18:42 45.19658 7.64696 970 ft 16 kts 182°
2026-05-05 18:42 45.19518 7.64687 965 ft 25 kts 182°
2026-05-05 18:42 45.19405 7.64680 967 ft 8 kts 182°
2026-05-05 18:43 45.19391 7.64679 968 ft 1 kts 182°
2026-05-05 18:43 45.19347 7.64676 968 ft 12 kts 182°
2026-05-05 18:43 45.19250 7.64655 963 ft 10 kts 219°
2026-05-05 18:43 45.19228 7.64578 961 ft 9 kts 256°
2026-05-05 18:44 45.19217 7.64512 961 ft 0 kts 259°